Velovelo
Português Nederlands 日本語 中文
Español English čeština slovenčina
русский italiano polski norsk
français Deutsch svenska عربي
 
 page précédente
 Envoyer à un ami
 Pour imprimer
 ---> La Ronde Castraise 2015 : résultats du 127 km

Cl ...Dos...Nom PrénomCat ...Temps…..Moy
1 297 SOLA CAMILLE E 03:37:41 35
2 231 RABOT DAVID D 03:38:29 34,88
3 276 PONT PATRICE F 03:39:17 34,75
4 332 AMBLARD NICOLAS E 03:39:18 34,75
5 303 RAYA PIERRE F 03:39:38 34,69
6 308 DEOBARRO MIKAEL E 03:39:43 34,68
7 324 BONINI BASTIEN D 03:39:45 34,68
8 309 THERON SYLVAIN E 03:39:48 34,67
9 185 HOLECEK YVAN F 03:39:53 34,65
10 250 BALITRAND DOMINIQUE F 03:39:55 34,65
11 349 MONDON THOMAS E 03:40:06 34,62
12 240 SAVE JEROME E 03:40:07 34,62
13 327 DAYDE DAMIEN E 03:40:25 34,57
14 9 PIRON ANTONY D 03:41:13 34,45
15 122 PALHOL VINCENT D 03:43:07 34,15
16 89 LOREA IRIGUIBEL GORKA E 03:44:42 33,91
17 201 BROCAS LAURENT E 03:44:57 33,87
18 20 BRIDET MATHIEU E 03:45:01 33,86
19 267 PENDERY ANDREW G 03:45:07 33,85
20 21 BUSSY XAVIER E 03:45:18 33,82
21 175 ESPOUY GILLES G 03:45:46 33,75
22 347 ROUBERTIES CYRILLE F 03:45:59 33,72
23 325 ALCAINE MICHEL G 03:46:06 33,7
24 7 ROUSTIT PHILIPPE F 03:46:06 33,7
25 178 MIEYAN FRANCK F 03:46:12 33,69
26 36 ROLLAND JEAN MARC H 03:46:19 33,67
27 69 RICARD JEAN LUC G 03:46:42 33,61
28 166 LIPIN VINCENT G 03:47:14 33,53
29 246 BISARO KIARA B 03:47:14 33,53
30 168 CAMPOS XAVIER F 03:47:31 33,49
31 282 COUSTILLERES CHRISTOPHE F 03:47:42 33,47
32 257 FILLEAU CLEMENT D 03:47:49 33,45
33 307 DANIS FABIEN D 03:48:34 33,34
34 197 ROGER STEPHANE F 03:48:55 33,29
35 272 ROUVIERE ADRIEN D 03:49:00 33,28
36 174 DOTTO JEREMIE E 03:49:08 33,26
37 207 LIEUTIER EMMANUEL F 03:49:14 33,24
38 118 MILLIES CEDRIC E 03:49:25 33,21
39 19 BARCELO THIERRY G 03:50:10 33,11
40 139 ESCUDIER JACQUES G 03:50:25 33,07
41 242 BARBIER SEBASTIEN E 03:50:38 33,04
42 177 LESSMAN PASCAL G 03:50:51 33,01
43 104 MOUISEL ETIENNE E 03:51:12 32,96
44 100 REIGNIER ERIC E 03:51:20 32,94
45 43 MALPEL LUDOVIC D 03:54:33 32,49
46 129 PUJOL PASCAL F 03:54:47 32,46
47 210 GERMA XAVIER F 03:54:53 32,44
48 146 CLEMENT PHILIPPE G 03:54:57 32,43
49 216 TORRES PHILIPPE G 03:55:00 32,43
50 320 COMBALIE FREDERIC D 03:55:03 32,42
51 344 MORIERES JOSE G 03:55:10 32,4
52 337 DUROUSSEAU YVAN F 03:55:14 32,39
53 115 TRIVES FLORENT F 03:55:15 32,39
54 335 BOULON CHRISTOPHE F 03:55:18 32,38
55 261 SIMON CHRISTOPHE F 03:55:24 32,37
56 334 LAURENT LIONEL F 03:55:34 32,35
57 65 OLZA MORENO JAIME E 03:55:37 32,34
58 176 LESCASTREYRES MICHEL H 03:55:40 32,33
59 286 TRINQUIER NICOLAS E 03:55:52 32,31
60 124 SANYAS GUILLAUME E 03:56:01 32,29
61 329 SENEGAS LAURENT F 03:56:29 32,22
62 321 BONNET NICOLAS E 03:56:31 32,22
63 34 LEGUEVAQUES SAMUEL E 03:58:33 31,94
64 326 TREADWELL PHILIP F 03:59:17 31,85
65 5 RUFFIE GUILLAUME D 03:59:19 31,84
66 141 BOUCHER LAURENT F 03:59:24 31,83
67 226 VICENTE ERIC F 03:59:26 31,83
68 170 ROUSSIN JEAN F 03:59:31 31,81
69 214 BARBAZA CHRISTIAN F 03:59:36 31,8
70 296 PERCEBOIS FRANÇOIS E 03:59:37 31,8
71 205 MAUDET DAVID F 03:59:48 31,78
72 225 VANDEWALLE NICOLAS E 04:00:01 31,75
73 273 CANDEL LAURENT F 04:00:07 31,73
74 56 ARGENTIN GERALD OLIVIER F 04:00:28 31,69
75 232 DECOMBE SEBASTIEN F 04:00:34 31,68
76 341 JULIA BRUNO G 04:00:42 31,66
77 55 BLANCHARD PATRICK G 04:00:48 31,64
78 318 MEGEMONT PHILIPPE G 04:00:50 31,64
79 180 PLET DIDIER G 04:00:50 31,64
80 283 MARAIS GUILHEM F 04:00:57 31,62
81 77 LABRID EMMANUEL F 04:01:11 31,59
82 270 BLAYAC THIERRY F 04:01:24 31,57
83 135 MARTIN PATRICK G 04:01:30 31,55
84 222 GARCIA RICHARD F 04:01:40 31,53
85 51 CANTON CLEMENT D 04:01:48 31,51
86 123 FOUGNIE BERTRAND F 04:01:49 31,51
87 24 BELLIO JEAN FRANÇOIS F 04:02:26 31,43
88 202 QUESADA PIERRE F 04:02:45 31,39
89 263 DANDRE ERIC F 04:02:49 31,38
90 52 LE CALVEZ ERIC F 04:02:54 31,37
91 159 DEBUS ARMAND H 04:02:58 31,36
92 285 CARRIERE PASCAL H 04:03:37 31,28
93 49 BARROSO MICHEL E 04:03:54 31,24
94 249 BOT RAYMOND G 04:04:03 31,22
95 187 DELILE PATRICE G 04:04:57 31,11
96 148 PUECH GILLES H 04:06:43 30,89
97 158 SACAREAU PIERRE G 04:06:45 30,88
98 194 LEGENNE JEROME G 04:06:49 30,87
99 340 BYERS KEVIN G 04:07:12 30,83
100 22 LAURENS GUILLAUME F 04:07:27 30,79
101 113 DELBERT CHRISTOPHE F 04:09:37 30,53
102 312 BOURLET PIERRE D 04:10:16 30,45
103 198 ROSZAK JULIEN E 04:10:18 30,44
104 152 FORET MARC D 04:10:49 30,38
105 284 JEANJEAN DIDIER G 04:11:25 30,31
106 33 PALAS DAVID F 04:11:26 30,31
107 323 LAVIELLE DENIS G 04:11:38 30,28
108 97 BARROT FABIEN F 04:12:06 30,23
109 186 PLANCQ ARNAUD D 04:12:11 30,22
110 206 CAMBOU CHRISTIAN G 04:12:22 30,19
111 57 CHELEUX ERICK G 04:12:24 30,19
112 47 CONDOM STEPHANE F 04:12:33 30,17
113 102 PARMENTIER DIDIER G 04:13:04 30,11
114 182 FERNANDEZ ANDRES E 04:13:11 30,1
115 304 CALVO FABRICE G 04:13:21 30,08
116 271 TORREGROSA OLIVIER E 04:13:37 30,05
117 99 VERGEZ ALAIN G 04:13:48 30,02
118 169 GACHE PHILIPPE G 04:13:54 30,01
119 319 FURTON ALAIN G 04:13:57 30,01
120 130 CHAMPIE CHRISTOPHE F 04:14:00 30
121 92 RENAULT THIERRY G 04:14:02 30
122 144 LABARTHE JEROME F 04:14:07 29,99
123 114 BOUCHER CHRISTOPHE E 04:14:08 29,98
124 331 CORDES SYLVIE C 04:14:15 29,97
125 35 SHEEHAN KEVIN F 04:14:29 29,94
126 75 CHAMPARNAUD MESJARD JACQUES H 04:14:34 29,93
127 165 PALOSSE JEAN MARC F 04:14:36 29,93
128 236 HERCOT MICHEL G 04:14:39 29,92
129 306 LE GOFF SERGE G 04:14:44 29,91
130 203 MEYER MICHEL G 04:14:46 29,91
131 61 MONREAL VIDAL ANA A 04:14:49 29,9
132 94 LE GOFF ERIC F 04:14:50 29,9
133 280 VAREA JEAN PIERRE G 04:14:56 29,89
134 103 CASTELLE CLAUDE H 04:14:57 29,89
135 294 HOSPITAL ANDRE H 04:15:05 29,87
136 218 JACQUIN THIBAUT E 04:15:05 29,87
137 278 PONS PATRICE F 04:15:20 29,84
138 348 LARRIEU GAUTIER D 04:15:27 29,83
139 346 HEWISON AIDAN G 04:15:35 29,81
140 196 PEREMANS YVES F 04:15:47 29,79
141 219 MENARD BRUNO F 04:16:17 29,73
142 109 TOUBAS SEBASTIEN F 04:16:24 29,72
143 95 GUIZARD JEAN FRANÇOIS F 04:16:31 29,71
144 110 MONTEGUT ANDRE G 04:16:34 29,7
145 239 LACOUR LAURENT F 04:16:39 29,69
146 48 HOHMANN FREDERIC F 04:16:47 29,67
147 44 CAMINADE LAURENT G 04:17:06 29,64
148 119 VALATX JEAN MARIE G 04:17:17 29,62
149 161 FERNANDEZ JEAN LOUIS F 04:17:59 29,54
150 245 SISTENICH DIDIER G 04:18:58 29,42
151 112 COURVOISIER RENALD F 04:19:06 29,41
152 10 GRAMOND SEBASTIEN F 04:19:18 29,39
153 264 LE BRETON YVES H 04:19:23 29,38
154 2 CALVET PHILIPPE G 04:19:27 29,37
155 153 TOULOUSE SEBASTIEN E 04:19:43 29,34
156 3 CALVET BENJAMIN E 04:19:49 29,33
157 200 DUFAU ALAIN G 04:19:57 29,31
158 1072 PUJOL PHILIPPE H 04:19:59 29,31
159 136 PROVENSOL ALAIN H 04:20:55 29,2
160 111 BARRE ARNAUD F 04:20:58 29,2
161 142 ROUX BENJAMIN D 04:20:58 29,2
162 162 GUITARD GERARD G 04:21:41 29,12
163 241 FANCHINI DANIEL H 04:21:52 29,1
164 125 CRESPY DENIS H 04:22:28 29,03
165 45 TOURNIER OLIVIER F 04:22:32 29,02
166 211 SOULIER THIERRY F 04:23:07 28,96
167 195 FAUCHERE JEAN CHARLES F 04:23:24 28,93
168 305 VIDAL ALAIN F 04:24:17 28,83
169 254 LAGASSE LIONEL E 04:24:17 28,83
170 259 RICHARD GYL G 04:24:56 28,76
171 333 BONNET BERNARD H 04:26:15 28,62
172 316 CHAUVINEAU ERIC F 04:26:48 28,56
173 315 URDIROZ ALBERT G 04:27:01 28,54
174 30 DERREZ PHILIPPE H 04:27:36 28,48
175 237 SACCHET JACQUES H 04:27:36 28,48
176 313 TREVESAIGUES DANIEL F 04:27:38 28,47
177 131 FERAUD OLIVIER G 04:27:48 28,45
178 244 FLANDIN HUGUES G 04:27:49 28,45
179 345 GLADIIN HERVE E 04:27:54 28,44
180 155 FERRANDEZ GUY H 04:28:24 28,39
181 17 CAUMARTIN REGIS F 04:29:10 28,31
182 266 MACHIELSE ADRIEN F 04:29:19 28,29
183 336 MONEDERO FERNANDO G 04:29:38 28,26
184 149 JAUBERT MARC G 04:29:45 28,25
185 87 BRUNET JEAN LOUIS F 04:30:25 28,18
186 228 TRILHA JEAN PHILIPPE F 04:30:33 28,16
187 281 AUTHIER MARCEL F 04:31:22 28,08
188 301 ZERBIB ALEXANDRE F 04:31:38 28,05
189 25 GRIMAL CLAUDE H 04:32:07 28
190 288 BELTRAN THIERRY G 04:32:40 27,95
191 88 FOURES NICOLAS E 04:33:45 27,84
192 295 SCHWARTZMAN PASCAL G 04:34:34 27,75
193 13 FOURNAISE FREDERIC E 04:35:41 27,64
194 157 CONTRAY PHILIPPE G 04:35:51 27,62
195 78 POURTAU JEAN MICHEL G 04:35:54 27,62
196 199 HUESCAR ANTONIO G 04:36:02 27,61
197 292 MICHELETTO PHILIPPE G 04:36:06 27,6
198 343 MIQUEU DIDIER F 04:36:08 27,6
199 279 BARRABES JEAN CLAUDE F 04:36:13 27,59
200 314 MANON FREDERIC G 04:36:20 27,58
201 86 RAOUL JEAN PIERRE G 04:36:30 27,56
202 70 MARCIE CHRISTIAN H 04:38:14 27,39
203 224 BUFFET DOMINIQUE G 04:38:58 27,32
204 238 MALPEL THIERRY F 04:39:43 27,24
205 108 BASTOW CHRISTOPHER G 04:40:38 27,15
206 59 SALES LAURENT G 04:40:55 27,13
207 117 ACHILLI ERIC G 04:40:56 27,12
208 154 BELARD PIERRE G 04:41:30 27,07
209 105 FOURNIER DOMINIQUE G 04:41:31 27,07
210 38 CARCERONI GILLES CLAUDIA C 04:41:38 27,06
211 39 GILLES ROLAND H 04:41:46 27,04
212 37 GARDES ROLAND F 04:43:19 26,9
213 184 VUAILLAT FRANCK E 04:43:20 26,89
214 179 ZELMAT LIONEL D 04:43:39 26,86
215 223 RABOT PATRICK G 04:43:39 26,86
216 76 DALLES JEAN PAUL G 04:43:57 26,84
217 68 PICQUART ERIC F 04:44:10 26,82
218 258 PETILLON BERTRAND G 04:45:10 26,72
219 221 MARTY DANIEL H 04:46:08 26,63
220 93 VIDAL PATRICIA C 04:46:14 26,62
221 96 RUFFIE JEAN G 04:46:26 26,6
222 101 LECOMTE CEDRIC F 04:46:47 26,57
223 143 LALASSERRE CHRISTIAN G 04:46:52 26,56
224 160 RUIZ JOSE G 04:47:06 26,54
225 74 VALENTI THIERRY G 04:47:12 26,53
226 81 GARCIA RICHARD G 04:47:12 26,53
227 208 RUFFEL HENRI H 04:47:47 26,48
228 18 GARCIA CHRISTOPHE E 04:48:22 26,42
229 80 BEYRIA YVES F 04:48:33 26,41
230 127 SALLAUD JEAN MICHEL H 04:48:39 26,4
231 58 GUIDOLIN DIDIER G 04:49:11 26,35
232 299 VAGAGGINI SANTIAGO G 04:49:22 26,33
233 8 JEULAND JEAN PAUL G 04:49:34 26,32
234 193 ESNAULT YVAN G 04:49:42 26,3
235 287 AICARDI JEAN NOEL F 04:49:47 26,3
236 164 DRUILHE YVAN G 04:51:45 26,12
237 183 COUDERC JEAN MARIE H 04:53:28 25,97
238 234 BASCOLE JEAN MARC G 04:53:37 25,95
239 151 ROUSSILLE DOMINIQUE G 04:53:39 25,95
240 217 PASTRE ERIC G 04:53:49 25,93
241 181 GAU JEAN LUC G 04:53:52 25,93
242 302 KOLENC GARY F 04:54:03 25,91
243 16 DUBOIS LAURENT F 04:55:02 25,83
244 23 LOTH JEAN MARIE F 04:55:42 25,77
245 133 CHAZALON OLIVIER F 04:55:50 25,76
246 213 MAILHOS CHRISTOPHE F 04:55:57 25,75
247 14 SERRE LAURENT G 04:55:59 25,74
248 12 CORTIAL PATRICK F 04:56:05 25,74
249 338 ROUX CHRISTIAN G 04:56:19 25,72
250 116 DELOGU CHRISTOPHER G 04:56:24 25,71
251 298 BLANC JEAN PHILIPPE H 04:56:42 25,68
252 255 MARTIN MARTIN MANUEL E 04:56:48 25,67
253 229 SEGUINEL YANN E 04:56:58 25,66
254 230 GONCALVES LAURENT E 04:57:06 25,65
255 215 JAMIN LUDOVIC E 04:57:08 25,65
256 46 PELLETIER FREDERIC F 04:58:55 25,49
257 82 GINER BRUNO G 04:59:43 25,42
258 290 DURAND DAVID F 05:00:12 25,38
259 27 DUTHILLEUL MICHEL G 05:00:17 25,38
260 252 TILNEY BASSETT JEREMY F 05:00:50 25,33
261 156 LECOEUR GILLES H 05:01:11 25,3
262 138 LACAMPAGNE PHILIPPE G 05:01:13 25,3
263 265 BURGER LAURIANE A 05:01:47 25,25
264 189 PICKERING TERESA ANN B 05:02:49 25,16
265 190 PICKERING MARTYN H 05:02:55 25,16
266 63 CASTANIER MICHEL G 05:05:31 24,94
267 339 BOUSSIN SERGE H 05:08:41 24,69
268 26 ZANIN GUILLAUME E 05:08:47 24,68
269 163 DEGOT PIERRE G 05:08:59 24,66
270 275 REDOULES VIRGINIE B 05:13:07 24,34
271 274 HALIN FABRICE G 05:13:10 24,33
272 260 TRUJILLO PATRICK F 05:14:37 24,22
273 120 BRU HUBERT H 05:15:42 24,14
274 268 FERRIE LUDOVIC E 05:16:02 24,11
275 204 GALINDO DENIS G 05:16:21 24,09
276 212 JOFRE FERNAND H 05:18:02 23,96
277 67 AGULLO ALAIN G 05:18:56 23,89
278 106 NAVARRO JEAN PAUL H 05:19:44 23,83
279 310 MARTY HERVE H 05:19:54 23,82
280 32 PORTEBOIS YVES G 05:20:00 23,81
281 188 MOLLER TREVOR G 05:20:22 23,79
282 73 THOUMELIN YANNICK H 05:20:49 23,75
283 248 DOUMERC MICHEL H 05:21:00 23,74
284 227 LACOSTE THIERRY G 05:21:17 23,72
285 41 MORETTI EVELYNE C 05:23:47 23,53
286 64 MOREAU MICHEL G 05:23:51 23,53
287 42 MORETTI THIERRY G 05:23:52 23,53
288 145 DUPARCHY PHILIPPE E 05:29:31 23,12
289 132 REVOL JACQUES H 05:32:30 22,92
290 140 VOLTZENLUGEL PASCAL F 05:32:31 22,92
291 253 AMIEL JEROME F 05:32:48 22,9
292 50 GIBOUT ROBERT H 05:33:32 22,85
293 54 BOURSET JACQUES G 05:38:21 22,52
294 83 GUILBERT JEAN MARIE G 05:45:42 22,04
295 85 PAUL MARC G 05:46:13 22,01
296 107 FOURES JEAN CLAUDE H 05:47:16 21,94
297 243 BAGARD MAX G 05:49:48 21,78
298 220 ESMERIAN ERIC G 05:56:35 21,37

Haut 









Haut  
 Espace privé   Droits d’auteur-Copyright: Cliquez ici pour lire !